Temperature
23 23 23 23 23 23 23 24 24 23 23 23 22 22 21 20 19 19 19 18 18 18 18 18 18 18 18 18 18 18 17 17 17 16 16 16 15 15 15 14 14 14 14 14
23 23 23 23 22 22 22 23 23 23 22 22 21 21 21 20 19 19 18 18 18 18 18 18 18 18 18 18 18 18 17 17 17 16 16 16 15 15 15 14 14 14 14 14
23 23 23 23 22 22 22 22 22 22 22 21 21 20 20 19 19 18 18 17 17 18 18 18 18 18 18 17 17 17 17 17 17 16 16 16 16 15 15 14 14 14 14 14
23 23 22 22 22 22 21 21 21 21 21 21 20 19 18 18 18 18 17 17 17 17 17 17 17 17 17 17 17 17 17 16 16 16 16 16 16 15 15 14 14 14 14 14
23 23 22 21 21 21 21 21 21 21 20 20 19 20 19 17 17 17 17 17 17 17 17 17 17 17 17 17 17 16 16 16 16 16 16 16 16 15 15 14 14 14 14 14
22 22 22 22 21 20 21 21 20 20 20 19 20 21 20 17 16 16 16 16 16 16 16 16 16 16 16 16 16 16 16 16 16 16 16 16 16 15 15 15 14 14 14 14
22 22 22 20 19 19 21 21 19 19 19 19 19 19 17 16 16 16 16 16 16 16 16 16 16 16 16 15 15 15 15 15 15 15 15 15 15 15 15 14 14 14 14 14
21 21 21 19 19 20 20 18 18 18 17 17 17 16 16 16 15 15 15 15 15 15 15 15 15 15 15 15 15 15 15 15 15 15 15 15 15 15 15 14 14 14 14 14
21 20 18 17 18 17 17 17 17 16 16 16 16 15 15 15 15 15 15 15 15 15 15 15 14 14 14 14 14 14 14 14 15 14 14 14 14 15 14 14 14 13 13 13
19 18 17 16 16 15 16 16 15 15 15 15 15 15 15 14 15 14 14 14 14 14 14 14 14 14 14 14 14 14 14 14 14 14 14 14 14 14 14 14 14 13 13 13
18 18 16 15 15 15 15 15 15 14 14 14 14 14 14 14 14 14 14 13 13 13 13 13 13 13 13 13 13 13 13 13 13 13 13 13 13 13 13 13 13 13 13 13
18 17 17 16 14 14 14 14 14 14 14 13 13 13 13 13 13 13 13 13 13 13 12 12 12 12 12 12 12 12 12 12 12 12 12 12 12 13 13 13 13 13 13 13
15 14 14 14 13 13 13 13 13 13 13 13 13 12 12 12 12 12 12 12 12 12 12 12 12 12 12 12 12 11 11 11 11 11 11 12 12 12 12 12 13 13 13 13
12 13 13 13 12 12 12 12 12 12 12 12 12 12 12 11 11 11 11 11 11 11 11 11 11 11 11 11 11 11 11 11 10 10 11 11 11 11 11 11 12 12 12 12
12 12 12 12 11 11 12 12 12 12 11 11 11 11 11 11 11 10 10 10 10 10 10 10 10 10 10 10 10 10 10 10 10 10 10 10 10 10 10 11 11 11 11 11
11 11 11 11 11 11 11 11 11 11 11 10 10 10 10 10 10 10 10 10 9 9 10 9 10 10 10 9 9 9 9 9 9 9 9 9 9 9 10 10 10 10 10 10
11 11 10 10 10 10 10 10 10 10 10 10 10 9 9 9 9 9 9 9 9 9 9 9 9 9 9 9 9 9 9 9 9 9 9 9 9 9 9 9 9 9 10 10
10 10 10 10 9 9 9 9 9 9 9 9 9 9 9 9 9 9 8 8 8 9 9 9 8 8 8 8 8 8 8 8 8 8 8 8 8 8 8 8 8 9 9 9
9 9 9 9 9 8 8 8 8 8 8 8 8 8 8 8 8 8 8 8 8 8 8 8 8 8 7 7 7 7 7 7 8 8 7 7 7 7 7 7 8 8 8 8
8 8 8 8 8 8 8 8 8 8 8 8 7 7 7 8 7 7 7 7 7 7 7 7 7 7 7 7 7 7 7 7 7 7 7 7 7 7 7 7 7 7 7 7
8 8 8 8 7 7 7 7 7 7 7 7 7 7 7 7 7 7 7 7 7 7 6 6 6 6 6 6 6 6 6 6 6 6 6 6 6 6 6 6 6 6 7 7
7 7 7 7 7 7 7 7 7 7 7 7 7 6 6 6 6 6 6 6 6 6 6 6 6 6 6 6 6 6 6 6 6 6 6 6 6 6 6 6 6 6 6 6
7 7 7 7 6 6 6 6 6 6 6 6 6 6 6 6 6 6 6 6 6 6 5 5 5 5 5 5 5 5 5 5 5 5 5 6 6 5 5 6 6 6 6 6
6 6 6 6 6 6 6 6 6 6 6 6 6 6 5 5 5 5 5 5 5 5 5 5 5 5 5 5 5 5 5 5 5 5 5 5 5 5 5 5 5 5 5 5
6 6 6 5 5 5 5 5 5 5 5 5 5 5 5 5 5 5 5 5 5 4 4 4 4 4 4 4 4 4 4 4 5 5 5 5 5 5 5 5 5 5 5 5
5 5 5 5 5 5 5 5 5 5 5 5 5 5 5 5 5 4 4 4 4 4 4 4 4 4 4 4 4 4 4 4 4 4 4 4 4 4 4 4 4 4 4 4
5 5 5 5 5 5 5 4 4 4 4 4 4 4 4 4 4 4 4 4 4 4 4 4 4 4 4 4 4 4 4 4 4 4 4 4 4 4 4 4 4 4 4 4
Wind_Speed
2 2 2 1 2 3 3 2 2 2 2 3 4 4 4 5 5 5 6 6 5 4 4 2 1 1 2 3 4 5 6 6 7 7 6 7 7 7 6 6 6 6 6 5
3 2 3 1 1 3 2 2 2 2 1 3 3 4 5 6 6 6 6 6 6 5 5 4 3 2 2 3 3 4 5 6 5 6 6 7 7 7 7 6 7 6 6 6
4 3 4 3 2 3 3 2 3 2 0 2 3 5 5 6 6 6 6 6 6 6 5 5 4 3 2 2 3 4 5 4 5 5 6 7 7 8 8 8 7 7 7 7
3 5 5 2 4 3 4 3 2 2 3 2 3 5 6 7 7 7 7 7 6 6 6 6 5 4 3 2 2 3 4 4 4 5 6 6 7 8 8 8 8 8 8 8
5 5 3 3 3 3 4 3 2 1 2 3 3 5 5 7 7 7 7 6 6 6 6 5 5 5 3 2 2 3 4 5 5 5 5 6 7 8 8 8 8 8 8 8
5 6 4 3 3 1 4 4 2 1 2 2 1 1 3 6 6 6 7 6 6 6 6 5 5 5 4 3 3 4 5 6 5 6 6 7 7 7 7 8 9 9 9 9
7 6 2 3 1 4 6 2 3 2 2 2 1 3 4 5 5 6 6 6 6 6 6 6 6 5 5 5 5 6 6 6 6 6 7 7 7 7 7 8 8 9 9 9
6 7 3 4 3 3 3 5 3 3 2 2 2 3 4 4 5 6 6 6 7 6 6 6 6 5 6 6 6 6 6 6 6 6 6 6 7 6 7 8 9 9 9 9
2 1 5 3 3 3 2 2 2 2 2 1 1 3 4 4 5 6 6 6 6 7 7 6 6 6 7 7 7 7 7 7 7 7 7 7 7 7 7 7 8 8 8 8
2 3 3 2 3 2 2 2 1 1 1 2 2 3 4 5 5 6 7 7 7 7 7 7 7 7 7 8 7 8 8 7 7 7 7 7 7 7 7 7 8 8 8 8
3 3 3 3 2 2 2 2 2 2 2 2 3 4 5 5 6 7 7 7 7 7 8 8 8 8 8 8 8 9 9 8 7 7 7 7 7 7 9 9 9 9 9 9
3 3 2 2 1 1 1 1 2 2 3 3 3 4 5 6 6 6 7 7 7 8 9 9 9 9 8 8 8 9 9 8 7 7 7 7 8 8 8 10 10 11 11 11
1 1 0 1 0 0 0 1 2 3 3 4 4 4 5 6 6 7 7 8 8 9 9 10 9 9 9 9 9 9 10 9 8 8 8 8 8 9 9 8 10 12 13 13
1 2 2 1 1 0 1 1 2 3 3 4 4 5 5 6 7 7 8 8 9 9 10 10 10 10 10 10 10 10 11 10 9 8 9 9 9 10 10 10 9 9 10 13
2 1 2 2 1 0 1 1 2 3 4 5 5 6 6 7 8 9 9 9 9 10 10 11 11 12 11 10 11 11 11 9 9 9 10 10 10 10 10 11 11 10 8 8
2 2 3 2 1 0 1 2 3 4 5 6 6 7 8 8 9 9 9 9 10 11 11 12 12 12 12 11 11 10 10 11 11 10 11 11 10 10 10 11 11 10 10 8
4 3 2 1 1 2 3 4 4 5 6 7 8 8 9 9 10 10 10 10 11 11 12 12 13 12 12 12 12 10 10 11 11 11 11 11 11 11 11 11 11 11 10 9
3 2 2 2 2 3 4 5 6 7 7 8 9 9 10 10 11 11 12 12 12 13 13 13 13 13 13 12 11 11 11 11 11 11 11 11 11 11 11 11 12 12 11 9
2 1 1 2 2 3 4 5 6 7 8 8 9 10 11 11 12 12 12 13 13 14 13 13 14 15 14 13 12 11 12 12 12 12 11 11 12 12 12 12 12 12 11 10
1 1 2 3 4 5 6 7 8 8 9 10 10 11 12 12 12 12 13 13 12 12 14 15 15 15 14 14 13 12 13 14 14 13 12 12 12 12 12 12 12 12 11 11
3 3 4 5 6 7 7 8 9 10 11 11 11 12 13 13 13 13 13 13 13 13 14 15 13 12 13 13 14 12 13 13 13 13 13 12 12 12 12 12 12 12 11 11
5 5 6 7 8 9 9 9 10 12 12 12 12 13 13 14 14 14 14 12 13 13 12 12 12 14 15 17 13 13 13 14 13 13 13 12 12 12 13 13 12 11 11 11
7 8 8 9 10 11 11 11 12 12 13 13 14 14 14 14 12 13 14 12 12 14 13 13 15 18 21 15 13 13 14 14 13 13 12 12 12 12 12 13 12 11 11 10
8 9 9 10 10 11 13 13 12 12 13 14 13 14 14 13 13 12 13 14 14 16 14 14 17 20 19 13 13 13 13 13 12 12 12 12 12 12 12 12 11 11 11 11
9 10 10 10 11 10 12 13 13 13 13 12 13 14 12 11 12 13 13 14 16 16 14 15 18 19 15 13 13 13 12 12 13 12 12 12 11 11 11 10 10 10 10 10
9 9 10 10 10 10 10 10 10 10 11 11 12 11 11 11 12 12 12 14 17 16 14 13 13 14 12 13 13 13 13 13 13 12 13 12 12 11 10 10 12 10 9 9
10 9 9 9 9 9 9 10 10 11 11 11 12 12 12 12 12 12 14 13 13 13 13 12 12 12 12 12 12 12 12 12 12 12 12 11 10 10 10 10 9 8 8 7
Wind_Direction
90 89 132 133 166 187 222 261 248 150 126 50 30 33 43 47 48 48 43 36 28 25 18 8 333 282 255 240 221 216 218 224 229 232 230 235 238 238 238 242 248 248 251 255
164 143 153 139 178 186 202 221 201 173 154 35 42 52 53 49 44 38 30 24 18 15 11 3 352 318 278 255 237 222 225 233 236 240 234 234 237 240 237 237 242 245 246 250
203 171 203 228 221 185 155 154 186 197 73 52 85 65 52 45 39 29 19 14 10 6 1 354 349 337 306 268 237 228 231 234 238 243 239 238 238 236 235 234 237 242 244 246
217 203 225 94 91 133 131 107 104 78 69 75 93 97 68 43 32 27 17 10 6 359 355 349 349 344 329 300 252 242 245 245 245 251 248 245 242 238 237 239 236 239 244 246
221 220 205 163 150 174 179 134 91 100 83 85 115 136 79 36 22 17 13 9 3 355 353 351 350 344 334 320 290 266 262 261 257 251 250 247 242 241 239 239 238 237 240 242
213 221 227 142 116 205 203 174 109 102 84 80 138 206 40 20 14 14 13 10 4 358 -0 359 352 342 333 327 314 294 280 271 265 256 250 247 246 246 244 241 240 240 240 241
222 229 221 78 104 185 207 136 101 99 87 81 48 22 21 10 12 11 9 6 0 357 356 350 344 335 326 327 319 311 299 283 272 261 255 253 250 247 244 241 242 243 244 243
213 224 205 92 146 178 76 83 93 77 66 67 39 25 13 6 4 2 360 360 355 349 346 344 340 328 321 322 319 313 304 291 279 269 263 255 249 247 245 240 240 243 245 246
218 95 87 88 84 63 86 100 80 59 37 17 351 349 350 349 349 350 348 347 344 338 334 338 337 325 317 320 317 309 300 291 285 278 266 258 251 247 245 240 241 245 244 245
185 150 121 101 93 86 78 70 44 21 359 345 328 332 334 334 335 338 340 337 333 330 329 331 332 325 318 318 314 306 299 295 290 284 275 263 255 252 248 245 242 244 244 246
212 177 162 135 102 67 58 48 32 20 351 328 321 321 324 325 329 330 331 331 326 321 320 321 324 321 322 319 311 304 301 298 296 289 283 274 262 257 254 251 249 246 246 246
224 174 194 173 87 37 36 8 348 335 332 329 319 317 318 319 322 323 323 324 321 319 318 318 318 317 318 317 309 304 303 303 298 293 286 279 274 268 257 258 258 249 252 254
263 115 281 194 165 104 325 335 328 322 319 319 320 315 311 312 315 317 317 318 317 316 314 314 315 314 315 314 308 302 299 298 296 293 289 282 276 274 276 267 250 246 243 242
164 173 191 174 176 317 331 333 330 328 327 321 316 314 310 308 310 310 311 314 312 310 308 308 308 308 312 310 303 298 297 293 290 288 286 282 279 277 274 273 273 265 246 235
159 204 181 167 178 270 315 313 316 322 327 324 320 314 310 306 305 305 308 309 306 304 305 307 306 307 310 306 300 297 295 293 291 290 285 281 279 277 274 271 270 268 263 243
173 149 148 153 150 316 321 317 313 316 316 314 312 311 308 303 300 300 302 304 303 303 305 305 303 304 306 302 299 295 291 288 287 287 285 281 279 277 276 273 269 266 261 255
166 163 168 187 265 298 308 310 310 309 307 305 305 305 302 299 297 299 302 302 299 298 299 299 300 303 301 297 294 292 292 291 283 282 282 281 279 278 277 274 270 266 262 253
168 180 213 253 281 296 306 311 310 307 305 303 299 295 294 295 297 299 301 301 300 298 299 301 304 304 299 296 293 291 288 288 288 285 283 281 280 278 276 273 270 268 266 255
166 203 258 282 290 294 302 307 308 308 307 303 298 295 295 294 295 297 300 300 300 300 304 307 308 300 297 295 293 287 286 287 287 284 282 280 277 276 275 273 270 266 264 258
223 256 274 286 289 292 296 299 301 301 303 303 300 297 295 295 296 298 298 296 295 298 302 305 303 299 297 294 291 286 285 285 285 284 282 280 278 276 275 274 273 270 265 258
260 273 281 288 292 292 292 294 295 296 298 299 297 296 297 297 297 296 296 295 297 301 302 300 298 297 297 299 294 287 285 284 283 281 280 279 278 276 275 273 271 270 267 262
271 278 283 287 288 289 291 293 293 293 293 293 291 290 292 294 297 296 291 290 294 299 299 297 297 300 303 301 292 288 286 284 282 279 278 276 276 276 275 273 270 268 266 264
275 278 281 284 286 289 291 290 289 290 289 289 290 290 290 292 293 291 292 293 295 298 297 293 296 299 300 298 292 288 286 283 281 279 278 278 276 276 275 272 270 267 265 264
278 279 281 284 286 286 286 289 291 290 288 287 285 286 288 289 288 286 287 291 293 294 292 292 293 295 297 295 291 289 288 287 284 281 280 278 277 277 276 273 270 268 265 263
276 278 280 281 281 282 285 289 290 289 287 286 287 289 288 287 287 291 292 292 294 292 291 292 293 294 292 289 289 289 289 287 286 284 280 278 277 277 276 275 272 268 264 261
274 276 277 277 278 280 282 284 284 287 289 290 291 292 293 291 289 289 289 291 291 289 288 290 292 291 290 290 289 289 289 290 287 283 280 279 277 275 272 268 267 264 262 259
274 274 274 275 275 275 276 278 279 282 286 288 291 294 294 294 292 291 291 292 292 291 289 288 289 291 291 290 290 291 291 291 289 286 284 279 276 273 271 268 266 264 261 257
Height
1493 1494 1495 1497 1498 1498 1497 1496 1498 1501 1503 1503 1504 1505 1506 1506 1506 1505 1505 1505 1504 1504 1503 1503 1503 1502 1503 1503 1503 1504 1504 1505 1505 1506 1506 1506 1506 1506 1506 1506 1505 1505 1505 1505
1495 1496 1496 1498 1498 1498 1500 1499 1499 1501 1504 1504 1506 1506 1506 1507 1507 1506 1506 1505 1505 1504 1503 1502 1502 1501 1501 1501 1501 1502 1502 1502 1503 1503 1503 1503 1503 1503 1503 1503 1503 1503 1503 1502
1494 1496 1496 1500 1498 1499 1500 1500 1500 1502 1504 1505 1506 1507 1508 1508 1507 1507 1507 1506 1505 1504 1503 1502 1501 1500 1500 1499 1499 1499 1500 1500 1500 1500 1500 1500 1500 1500 1500 1500 1500 1500 1500 1500
1494 1498 1507 1500 1498 1499 1501 1502 1502 1503 1505 1506 1507 1508 1509 1509 1508 1508 1507 1505 1504 1504 1503 1502 1501 1499 1499 1498 1498 1497 1497 1497 1497 1497 1497 1497 1497 1496 1496 1497 1497 1496 1497 1496
1494 1497 1499 1500 1499 1500 1500 1504 1504 1504 1505 1506 1507 1507 1508 1509 1509 1508 1507 1506 1504 1503 1502 1501 1499 1498 1497 1497 1496 1495 1495 1495 1494 1494 1493 1493 1493 1493 1493 1493 1493 1493 1493 1492
1495 1499 1501 1497 1498 1501 1502 1504 1505 1505 1506 1506 1506 1504 1508 1510 1508 1508 1506 1505 1504 1502 1501 1500 1498 1497 1496 1495 1494 1493 1492 1492 1491 1490 1490 1489 1489 1489 1489 1489 1489 1489 1489 1488
1494 1495 1492 1498 1500 1501 1504 1502 1505 1506 1506 1507 1507 1508 1510 1509 1508 1507 1506 1504 1503 1502 1500 1498 1497 1495 1494 1493 1492 1490 1489 1488 1487 1487 1486 1486 1485 1485 1485 1484 1484 1484 1484 1484
1493 1496 1498 1500 1499 1500 1502 1504 1506 1507 1507 1508 1508 1509 1508 1508 1507 1506 1504 1503 1502 1500 1499 1497 1495 1493 1492 1490 1489 1487 1486 1485 1484 1483 1482 1481 1481 1480 1480 1480 1479 1479 1479 1479
1491 1496 1500 1501 1501 1503 1504 1505 1506 1507 1508 1508 1508 1508 1507 1506 1505 1504 1503 1502 1500 1498 1497 1495 1493 1491 1489 1487 1485 1484 1482 1481 1480 1479 1478 1477 1476 1475 1475 1474 1474 1474 1474 1474
1495 1497 1500 1502 1503 1504 1505 1505 1506 1507 1507 1507 1507 1506 1505 1505 1503 1502 1501 1499 1497 1496 1494 1492 1490 1488 1486 1484 1482 1480 1479 1477 1476 1474 1473 1472 1471 1470 1470 1469 1469 1469 1468 1468
1494 1497 1500 1502 1503 1504 1504 1505 1505 1505 1505 1505 1505 1504 1503 1502 1501 1500 1498 1496 1495 1493 1491 1489 1487 1485 1483 1481 1479 1477 1475 1473 1471 1470 1468 1466 1465 1464 1464 1463 1463 1463 1462 1462
1492 1496 1498 1501 1502 1503 1503 1504 1504 1504 1503 1503 1503 1502 1501 1500 1499 1497 1495 1494 1492 1490 1488 1486 1484 1482 1479 1477 1475 1473 1471 1469 1467 1465 1463 1461 1460 1458 1457 1457 1456 1455 1455 1455
1496 1497 1498 1500 1501 1502 1502 1502 1502 1502 1501 1501 1500 1499 1498 1497 1496 1494 1492 1490 1488 1486 1484 1482 1480 1478 1476 1473 1471 1469 1467 1465 1462 1460 1458 1456 1454 1452 1450 1449 1448 1447 1447 1447
1495 1496 1497 1498 1499 1500 1500 1500 1500 1500 1499 1498 1497 1496 1495 1494 1492 1491 1489 1487 1485 1482 1480 1478 1476 1473 1471 1469 1466 1464 1462 1459 1457 1455 1453 1451 1448 1446 1445 1443 1441 1439 1439 1438
1494 1495 1496 1497 1497 1498 1498 1498 1498 1497 1496 1495 1494 1493 1492 1490 1489 1487 1485 1483 1480 1478 1476 1474 1471 1469 1466 1463 1461 1458 1456 1454 1452 1449 1447 1445 1443 1440 1438 1436 1434 1433 1431 1430
1492 1493 1494 1495 1496 1496 1496 1496 1495 1494 1493 1492 1491 1490 1488 1487 1485 1483 1481 1479 1476 1474 1471 1469 1466 1463 1461 1458 1455 1452 1450 1447 1445 1443 1441 1438 1436 1434 1431 1430 1428 1426 1424 1423
1491 1492 1493 1493 1494 1494 1494 1493 1492 1491 1490 1489 1488 1486 1484 1482 1480 1478 1476 1474 1472 1469 1466 1464 1461 1458 1455 1452 1449 1446 1444 1441 1439 1436 1434 1432 1429 1427 1425 1422 1420 1418 1417 1416
1489 1490 1491 1491 1491 1491 1491 1490 1489 1488 1487 1485 1484 1482 1480 1478 1476 1474 1471 1469 1466 1463 1461 1458 1455 1452 1449 1446 1443 1440 1437 1434 1432 1429 1427 1424 1422 1420 1417 1415 1413 1411 1409 1408
1487 1488 1488 1489 1489 1488 1488 1487 1486 1484 1483 1481 1480 1478 1476 1473 1471 1469 1466 1463 1460 1457 1455 1452 1448 1445 1442 1439 1436 1433 1430 1428 1425 1422 1419 1417 1414 1412 1410 1407 1405 1403 1401 1400
1485 1485 1486 1486 1485 1485 1484 1483 1482 1480 1479 1477 1475 1473 1470 1468 1466 1463 1461 1458 1455 1452 1448 1445 1442 1439 1436 1433 1429 1426 1423 1420 1417 1415 1412 1409 1407 1404 1402 1400 1397 1395 1393 1392
1482 1482 1482 1482 1481 1481 1480 1479 1477 1476 1474 1472 1470 1467 1465 1463 1460 1458 1454 1451 1448 1446 1442 1438 1435 1432 1429 1425 1422 1419 1416 1413 1410 1407 1404 1401 1399 1396 1394 1392 1389 1387 1386 1384
1479 1478 1478 1478 1477 1476 1475 1474 1472 1470 1468 1466 1464 1462 1459 1456 1454 1451 1448 1445 1442 1438 1435 1432 1428 1425 1421 1418 1414 1411 1408 1404 1401 1399 1396 1393 1391 1388 1386 1384 1381 1379 1378 1376
1474 1474 1473 1473 1472 1470 1469 1468 1466 1464 1462 1460 1458 1455 1453 1450 1447 1444 1440 1438 1435 1431 1428 1424 1421 1418 1414 1410 1407 1403 1400 1397 1393 1391 1388 1385 1383 1380 1378 1376 1374 1372 1370 1369
1469 1469 1468 1467 1466 1464 1463 1461 1459 1457 1455 1453 1451 1449 1446 1443 1439 1437 1434 1430 1427 1423 1420 1416 1413 1410 1406 1403 1399 1396 1392 1389 1385 1382 1380 1377 1375 1372 1370 1368 1366 1364 1362 1361
1464 1463 1462 1461 1460 1458 1456 1454 1452 1450 1448 1446 1444 1441 1439 1436 1433 1429 1426 1423 1419 1416 1412 1409 1405 1402 1399 1395 1392 1388 1385 1381 1378 1375 1372 1369 1367 1364 1362 1360 1358 1356 1355 1353
1458 1457 1456 1455 1453 1452 1450 1448 1446 1444 1442 1439 1436 1434 1432 1429 1425 1422 1418 1415 1412 1408 1405 1401 1398 1394 1391 1388 1384 1381 1377 1374 1370 1367 1364 1361 1359 1357 1354 1352 1351 1349 1347 1346
1452 1451 1449 1448 1447 1445 1443 1441 1439 1437 1435 1433 1430 1427 1425 1422 1418 1415 1412 1408 1404 1401 1397 1394 1391 1387 1384 1380 1377 1373 1370 1366 1363 1360 1357 1354 1352 1349 1348 1346 1344 1343 1341 1339